Time,TemperatureF,DewpointF,PressureIn,WindDirection,WindDirectionDegrees,WindSpeedMPH,WindSpeedGustMPH,Humidity,HourlyPrecipIn,Conditions,Clouds,dailyrainin,SoftwareType,DateUTC
2013-05-22 00:01:00,61.0,48.7,29.74,North,1,0.0,0.0,64,0.00,CLR,,0.00,WeatherDisplay:10.37,2013-05-22 05:01:00,
2013-05-22 00:06:00,61.2,48.9,29.74,North,1,0.0,0.0,64,0.00,CLR,,0.00,WeatherDisplay:10.37,2013-05-22 05:06:00,
2013-05-22 00:11:00,61.2,48.9,29.75,North,1,0.0,0.0,64,0.00,CLR,,0.00,WeatherDisplay:10.37,2013-05-22 05:11:00,
2013-05-22 00:16:00,61.0,48.7,29.75,North,1,0.0,0.0,64,0.00,CLR,,0.00,WeatherDisplay:10.37,2013-05-22 05:16:00,
2013-05-22 00:21:00,60.8,49.0,29.75,North,1,0.0,0.0,65,0.00,CLR,,0.00,WeatherDisplay:10.37,2013-05-22 05:21:00,
2013-05-22 00:26:00,60.6,48.8,29.75,North,1,0.0,0.0,65,0.00,CLR,,0.00,WeatherDisplay:10.37,2013-05-22 05:26:00,
2013-05-22 00:31:00,60.3,48.4,29.75,North,1,0.0,0.0,65,0.00,CLR,,0.00,WeatherDisplay:10.37,2013-05-22 05:31:00,
2013-05-22 00:36:00,60.1,48.7,29.75,North,1,0.0,0.0,66,0.00,CLR,,0.00,WeatherDisplay:10.37,2013-05-22 05:36:00,
2013-05-22 00:41:00,59.9,48.5,29.75,North,1,0.0,0.0,66,0.00,CLR,,0.00,WeatherDisplay:10.37,2013-05-22 05:41:00,
2013-05-22 00:46:00,59.7,48.3,29.75,North,1,0.0,0.0,66,0.00,CLR,,0.00,WeatherDisplay:10.37,2013-05-22 05:46:00,
2013-05-22 00:51:00,59.7,48.3,29.75,North,1,0.0,0.0,66,0.00,CLR,,0.00,WeatherDisplay:10.37,2013-05-22 05:51:00,
2013-05-22 00:56:00,59.4,48.0,29.75,North,1,0.0,0.0,66,0.00,CLR,,0.00,WeatherDisplay:10.37,2013-05-22 05:56:00,
2013-05-22 01:01:00,59.4,48.0,29.75,North,1,0.0,0.0,66,0.00,CLR,,0.00,WeatherDisplay:10.37,2013-05-22 06:01:00,
2013-05-22 01:06:00,59.2,48.2,29.75,North,1,0.0,0.0,67,0.00,CLR,,0.00,WeatherDisplay:10.37,2013-05-22 06:06:00,
2013-05-22 01:11:00,59.2,48.2,29.75,North,1,0.0,0.0,67,0.00,CLR,,0.00,WeatherDisplay:10.37,2013-05-22 06:11:00,
2013-05-22 01:16:00,59.2,48.2,29.75,North,1,0.0,0.0,67,0.00,CLR,,0.00,WeatherDisplay:10.37,2013-05-22 06:16:00,
2013-05-22 01:21:00,59.2,48.2,29.75,North,1,0.0,0.0,67,0.00,CLR,,0.00,WeatherDisplay:10.37,2013-05-22 06:21:00,
2013-05-22 01:26:00,59.2,48.2,29.75,North,1,0.0,0.0,67,0.00,CLR,,0.00,WeatherDisplay:10.37,2013-05-22 06:26:00,
2013-05-22 01:31:00,58.8,47.9,29.75,North,1,0.0,0.0,67,0.00,CLR,,0.00,WeatherDisplay:10.37,2013-05-22 06:31:00,
2013-05-22 01:36:00,58.8,48.3,29.74,North,1,0.0,0.0,68,0.00,CLR,,0.00,WeatherDisplay:10.37,2013-05-22 06:36:00,
2013-05-22 01:41:00,58.5,47.9,29.74,North,1,0.0,0.0,68,0.00,CLR,,0.00,WeatherDisplay:10.37,2013-05-22 06:41:00,
2013-05-22 01:46:00,58.3,47.8,29.75,North,1,0.0,0.0,68,0.00,CLR,,0.00,WeatherDisplay:10.37,2013-05-22 06:46:00,
2013-05-22 01:51:00,58.3,47.8,29.74,North,1,0.0,0.0,68,0.00,CLR,,0.00,WeatherDisplay:10.37,2013-05-22 06:51:00,
2013-05-22 01:56:00,57.9,47.4,29.74,North,1,0.0,0.0,68,0.00,CLR,,0.00,WeatherDisplay:10.37,2013-05-22 06:56:00,
2013-05-22 02:01:00,57.9,47.4,29.74,North,1,0.0,0.0,68,0.00,CLR,,0.00,WeatherDisplay:10.37,2013-05-22 07:01:00,
2013-05-22 02:06:00,57.9,47.4,29.75,North,1,0.0,0.0,68,0.00,CLR,,0.00,WeatherDisplay:10.37,2013-05-22 07:06:00,
2013-05-22 02:11:00,57.6,47.1,29.74,North,1,0.0,0.0,68,0.00,CLR,,0.00,WeatherDisplay:10.37,2013-05-22 07:11:00,
2013-05-22 02:16:00,57.6,47.1,29.74,North,1,0.0,0.0,68,0.00,CLR,,0.00,WeatherDisplay:10.37,2013-05-22 07:16:00,
2013-05-22 02:21:00,57.6,47.1,29.74,North,1,0.0,0.0,68,0.00,CLR,,0.00,WeatherDisplay:10.37,2013-05-22 07:21:00,
2013-05-22 02:26:00,57.4,46.9,29.74,North,1,0.0,0.0,68,0.00,CLR,,0.00,WeatherDisplay:10.37,2013-05-22 07:26:00,
2013-05-22 02:31:00,57.4,46.9,29.74,North,1,0.0,0.0,68,0.00,CLR,,0.00,WeatherDisplay:10.37,2013-05-22 07:31:00,
2013-05-22 02:36:00,57.4,46.9,29.74,North,1,0.0,0.0,68,0.00,CLR,,0.00,WeatherDisplay:10.37,2013-05-22 07:36:00,
2013-05-22 02:41:00,57.0,46.6,29.74,North,1,0.0,0.0,68,0.00,CLR,,0.00,WeatherDisplay:10.37,2013-05-22 07:41:00,
2013-05-22 02:46:00,57.0,46.6,29.74,North,1,0.0,0.0,68,0.00,CLR,,0.00,WeatherDisplay:10.37,2013-05-22 07:46:00,
2013-05-22 02:51:00,56.8,46.8,29.74,North,1,0.0,0.0,69,0.00,CLR,,0.00,WeatherDisplay:10.37,2013-05-22 07:51:00,
2013-05-22 02:56:00,56.7,46.6,29.74,North,1,0.0,0.0,69,0.00,CLR,,0.00,WeatherDisplay:10.37,2013-05-22 07:56:00,
2013-05-22 03:01:00,56.7,46.6,29.74,North,1,0.0,0.0,69,0.00,CLR,,0.00,WeatherDisplay:10.37,2013-05-22 08:01:00,
2013-05-22 03:06:00,56.7,46.6,29.74,North,1,0.0,0.0,69,0.00,CLR,,0.00,WeatherDisplay:10.37,2013-05-22 08:06:00,
2013-05-22 03:11:00,56.7,46.6,29.74,North,1,0.0,0.0,69,0.00,CLR,,0.00,WeatherDisplay:10.37,2013-05-22 08:11:00,
2013-05-22 03:16:00,56.7,47.0,29.74,North,1,0.0,0.0,70,0.00,CLR,,0.00,WeatherDisplay:10.37,2013-05-22 08:16:00,
2013-05-22 03:21:00,56.7,47.0,29.74,North,1,0.0,0.0,70,0.00,CLR,,0.00,WeatherDisplay:10.37,2013-05-22 08:21:00,
2013-05-22 03:26:00,56.7,47.0,29.75,North,1,0.0,0.0,70,0.00,CLR,,0.00,WeatherDisplay:10.37,2013-05-22 08:26:00,
2013-05-22 03:31:00,56.5,46.8,29.74,North,1,0.0,0.0,70,0.00,CLR,,0.00,WeatherDisplay:10.37,2013-05-22 08:31:00,
2013-05-22 03:36:00,56.5,46.8,29.74,North,1,0.0,0.0,70,0.00,CLR,,0.00,WeatherDisplay:10.37,2013-05-22 08:36:00,
2013-05-22 03:41:00,56.3,47.0,29.74,North,1,0.0,0.0,71,0.00,CLR,,0.00,WeatherDisplay:10.37,2013-05-22 08:41:00,
2013-05-22 03:46:00,56.3,47.0,29.74,North,1,0.0,0.0,71,0.00,CLR,,0.00,WeatherDisplay:10.37,2013-05-22 08:46:00,
2013-05-22 03:51:00,56.1,46.8,29.74,North,1,0.0,0.0,71,0.00,CLR,,0.00,WeatherDisplay:10.37,2013-05-22 08:51:00,
2013-05-22 03:56:00,56.1,46.8,29.74,North,1,0.0,0.0,71,0.00,CLR,,0.00,WeatherDisplay:10.37,2013-05-22 08:56:00,
2013-05-22 04:01:00,56.1,46.8,29.74,North,1,0.0,0.0,71,0.00,CLR,,0.00,WeatherDisplay:10.37,2013-05-22 09:01:00,
2013-05-22 04:06:00,55.8,46.5,29.74,North,1,0.0,0.0,71,0.00,CLR,,0.00,WeatherDisplay:10.37,2013-05-22 09:06:00,
2013-05-22 04:11:00,55.8,46.5,29.74,North,1,0.0,0.0,71,0.00,CLR,,0.00,WeatherDisplay:10.37,2013-05-22 09:11:00,
2013-05-22 04:16:00,55.8,46.5,29.74,North,1,0.0,0.0,71,0.00,CLR,,0.00,WeatherDisplay:10.37,2013-05-22 09:16:00,
2013-05-22 04:21:00,55.6,46.3,29.74,North,1,0.0,0.0,71,0.00,CLR,,0.00,WeatherDisplay:10.37,2013-05-22 09:21:00,
2013-05-22 04:26:00,55.6,46.7,29.74,North,1,0.0,0.0,72,0.00,CLR,,0.00,WeatherDisplay:10.37,2013-05-22 09:26:00,
2013-05-22 04:31:00,55.6,46.7,29.74,North,1,0.0,0.0,72,0.00,CLR,,0.00,WeatherDisplay:10.37,2013-05-22 09:31:00,
2013-05-22 04:36:00,55.6,46.7,29.75,North,1,0.0,0.0,72,0.00,CLR,,0.00,WeatherDisplay:10.37,2013-05-22 09:36:00,
2013-05-22 04:41:00,55.2,46.3,29.75,North,1,0.0,0.0,72,0.00,CLR,,0.00,WeatherDisplay:10.37,2013-05-22 09:41:00,
2013-05-22 04:46:00,55.2,46.3,29.75,North,1,0.0,0.0,72,0.00,CLR,,0.00,WeatherDisplay:10.37,2013-05-22 09:46:00,
2013-05-22 04:51:00,55.0,46.2,29.75,North,1,0.0,0.0,72,0.00,CLR,,0.00,WeatherDisplay:10.37,2013-05-22 09:51:00,
2013-05-22 04:56:00,54.9,46.0,29.75,North,1,0.0,0.0,72,0.00,CLR,,0.00,WeatherDisplay:10.37,2013-05-22 09:56:00,
2013-05-22 05:01:00,54.7,45.8,29.75,North,1,0.0,0.0,72,0.00,CLR,,0.00,WeatherDisplay:10.37,2013-05-22 10:01:00,
2013-05-22 05:06:00,54.5,46.0,29.75,North,1,0.0,0.0,73,0.00,CLR,,0.00,WeatherDisplay:10.37,2013-05-22 10:06:00,
2013-05-22 05:11:00,54.5,46.0,29.75,North,1,0.0,0.0,73,0.00,CLR,,0.00,WeatherDisplay:10.37,2013-05-22 10:11:00,
2013-05-22 05:16:00,54.3,45.5,29.75,North,1,0.0,0.0,72,0.00,CLR,,0.00,WeatherDisplay:10.37,2013-05-22 10:16:00,
2013-05-22 05:21:00,54.1,45.7,29.75,North,1,0.0,0.0,73,0.00,CLR,,0.00,WeatherDisplay:10.37,2013-05-22 10:21:00,
2013-05-22 05:26:00,54.0,45.5,29.75,North,1,0.0,0.0,73,0.00,CLR,,0.00,WeatherDisplay:10.37,2013-05-22 10:26:00,
2013-05-22 05:31:00,54.0,45.5,29.75,North,1,0.0,0.0,73,0.00,CLR,,0.00,WeatherDisplay:10.37,2013-05-22 10:31:00,
2013-05-22 05:36:00,54.0,45.5,29.75,North,1,0.0,0.0,73,0.00,CLR,,0.00,WeatherDisplay:10.37,2013-05-22 10:36:00,
2013-05-22 05:41:00,53.8,45.3,29.75,North,1,0.0,0.0,73,0.00,CLR,,0.00,WeatherDisplay:10.37,2013-05-22 10:41:00,
2013-05-22 05:46:00,53.8,45.3,29.75,North,1,0.0,0.0,73,0.00,CLR,,0.00,WeatherDisplay:10.37,2013-05-22 10:46:00,
2013-05-22 05:51:00,53.6,45.2,29.75,North,1,0.0,0.0,73,0.00,CLR,,0.00,WeatherDisplay:10.37,2013-05-22 10:51:00,
2013-05-22 05:56:00,53.4,45.0,29.75,North,1,0.0,0.0,73,0.00,CLR,,0.00,WeatherDisplay:10.37,2013-05-22 10:56:00,
2013-05-22 06:01:00,53.2,45.2,29.75,North,1,0.0,0.0,74,0.00,CLR,,0.00,WeatherDisplay:10.37,2013-05-22 11:01:00,
2013-05-22 06:06:00,53.2,45.2,29.76,North,1,0.0,0.0,74,0.00,CLR,,0.00,WeatherDisplay:10.37,2013-05-22 11:06:00,
2013-05-22 06:11:00,53.2,45.2,29.76,North,1,0.0,0.0,74,0.00,CLR,,0.00,WeatherDisplay:10.37,2013-05-22 11:11:00,
2013-05-22 06:16:00,53.1,45.0,29.76,North,1,0.0,0.0,74,0.00,CLR,,0.00,WeatherDisplay:10.37,2013-05-22 11:16:00,
2013-05-22 06:21:00,53.1,45.0,29.76,North,1,0.0,0.0,74,0.00,CLR,,0.00,WeatherDisplay:10.37,2013-05-22 11:21:00,
2013-05-22 06:26:00,52.9,44.8,29.76,North,1,0.0,0.0,74,0.00,CLR,,0.00,WeatherDisplay:10.37,2013-05-22 11:26:00,
2013-05-22 06:31:00,52.7,45.0,29.76,North,1,0.0,0.0,75,0.00,CLR,,0.00,WeatherDisplay:10.37,2013-05-22 11:31:00,
2013-05-22 06:36:00,52.9,45.2,29.76,North,1,0.0,0.0,75,0.00,CLR,,0.00,WeatherDisplay:10.37,2013-05-22 11:36:00,
2013-05-22 06:41:00,52.9,45.2,29.76,North,1,0.0,0.0,75,0.00,CLR,,0.00,WeatherDisplay:10.37,2013-05-22 11:41:00,
2013-05-22 06:46:00,52.9,45.2,29.76,North,1,0.0,0.0,75,0.00,CLR,,0.00,WeatherDisplay:10.37,2013-05-22 11:46:00,
2013-05-22 06:51:00,53.1,45.3,29.76,North,1,0.0,0.0,75,0.00,CLR,,0.00,WeatherDisplay:10.37,2013-05-22 11:51:00,
2013-05-22 06:56:00,53.1,45.3,29.76,North,1,0.0,0.0,75,0.00,CLR,,0.00,WeatherDisplay:10.37,2013-05-22 11:56:00,
2013-05-22 07:01:00,53.2,45.5,29.76,North,1,0.0,0.0,75,0.00,CLR,,0.00,WeatherDisplay:10.37,2013-05-22 12:01:00,
2013-05-22 07:06:00,53.6,45.9,29.76,North,1,0.0,0.0,75,0.00,CLR,,0.00,WeatherDisplay:10.37,2013-05-22 12:06:00,
2013-05-22 07:11:00,54.0,46.2,29.76,North,1,0.0,0.0,75,0.00,CLR,,0.00,WeatherDisplay:10.37,2013-05-22 12:11:00,
2013-05-22 07:16:00,54.1,46.4,29.76,North,1,0.0,0.0,75,0.00,CLR,,0.00,WeatherDisplay:10.37,2013-05-22 12:16:00,
2013-05-22 07:21:00,54.3,46.6,29.76,North,1,0.0,0.0,75,0.00,CLR,,0.00,WeatherDisplay:10.37,2013-05-22 12:21:00,
2013-05-22 07:26:00,54.5,46.7,29.77,North,1,0.0,0.0,75,0.00,CLR,,0.00,WeatherDisplay:10.37,2013-05-22 12:26:00,
2013-05-22 07:31:00,54.5,46.7,29.77,North,1,0.0,0.0,75,0.00,CLR,,0.00,WeatherDisplay:10.37,2013-05-22 12:31:00,
2013-05-22 07:36:00,54.5,46.7,29.78,North,1,0.0,0.0,75,0.00,CLR,,0.00,WeatherDisplay:10.37,2013-05-22 12:36:00,
2013-05-22 07:41:00,54.5,46.7,29.78,North,1,0.0,0.0,75,0.00,CLR,,0.00,WeatherDisplay:10.37,2013-05-22 12:41:00,
2013-05-22 07:46:00,54.5,46.7,29.78,North,1,0.0,0.0,75,0.00,CLR,,0.00,WeatherDisplay:10.37,2013-05-22 12:46:00,
2013-05-22 07:51:00,54.7,46.9,29.78,North,1,0.0,0.0,75,0.00,CLR,,0.00,WeatherDisplay:10.37,2013-05-22 12:51:00,
2013-05-22 07:56:00,54.9,47.1,29.78,North,1,0.0,0.0,75,0.00,CLR,,0.00,WeatherDisplay:10.37,2013-05-22 12:56:00,
2013-05-22 08:01:00,55.2,47.4,29.78,North,1,0.0,0.0,75,0.00,CLR,,0.00,WeatherDisplay:10.37,2013-05-22 13:01:00,
2013-05-22 08:06:00,55.2,47.4,29.78,North,1,0.0,0.0,75,0.00,CLR,,0.00,WeatherDisplay:10.37,2013-05-22 13:06:00,
2013-05-22 08:11:00,55.6,47.8,29.78,North,1,0.0,0.0,75,0.00,CLR,,0.00,WeatherDisplay:10.37,2013-05-22 13:11:00,
2013-05-22 08:16:00,56.1,48.3,29.78,North,1,0.0,0.0,75,0.00,CLR,,0.00,WeatherDisplay:10.37,2013-05-22 13:16:00,
2013-05-22 08:21:00,56.3,48.1,29.79,North,1,0.0,0.0,74,0.00,CLR,,0.00,WeatherDisplay:10.37,2013-05-22 13:21:00,
2013-05-22 08:26:00,56.7,48.5,29.79,North,1,0.0,0.0,74,0.00,CLR,,0.00,WeatherDisplay:10.37,2013-05-22 13:26:00,
2013-05-22 08:31:00,57.0,48.8,29.78,North,1,0.0,0.0,74,0.00,CLR,,0.00,WeatherDisplay:10.37,2013-05-22 13:31:00,
2013-05-22 08:36:00,57.6,49.0,29.78,North,1,0.0,0.0,73,0.00,CLR,,0.00,WeatherDisplay:10.37,2013-05-22 13:36:00,
2013-05-22 08:41:00,58.3,49.3,29.78,North,1,0.0,0.0,72,0.00,CLR,,0.00,WeatherDisplay:10.37,2013-05-22 13:41:00,
2013-05-22 08:46:00,58.8,49.8,29.79,North,1,0.0,0.0,72,0.00,CLR,,0.00,WeatherDisplay:10.37,2013-05-22 13:46:00,
2013-05-22 08:51:00,58.8,49.1,29.79,North,1,0.0,0.0,70,0.00,CLR,,0.00,WeatherDisplay:10.37,2013-05-22 13:51:00,
2013-05-22 08:56:00,59.0,49.2,29.79,North,1,0.0,0.0,70,0.00,CLR,,0.00,WeatherDisplay:10.37,2013-05-22 13:56:00,
2013-05-22 09:01:00,60.1,49.5,29.80,North,1,0.0,0.0,68,0.00,CLR,,0.00,WeatherDisplay:10.37,2013-05-22 14:01:00,
2013-05-22 09:06:00,61.0,50.3,29.80,North,1,0.0,0.0,68,0.00,CLR,,0.00,WeatherDisplay:10.37,2013-05-22 14:06:00,
2013-05-22 09:11:00,61.9,50.4,29.80,North,1,0.0,0.0,66,0.00,CLR,,0.00,WeatherDisplay:10.37,2013-05-22 14:11:00,
2013-05-22 09:16:00,61.9,49.6,29.80,North,1,0.0,0.0,64,0.00,CLR,,0.00,WeatherDisplay:10.37,2013-05-22 14:16:00,
2013-05-22 09:21:00,63.9,51.4,29.81,North,1,0.0,0.0,64,0.00,CLR,,0.00,WeatherDisplay:10.37,2013-05-22 14:21:00,
2013-05-22 09:26:00,63.9,50.1,29.81,North,1,0.0,0.0,61,0.00,CLR,,0.00,WeatherDisplay:10.37,2013-05-22 14:26:00,
2013-05-22 09:31:00,63.0,48.9,29.81,North,1,0.0,0.0,60,0.00,CLR,,0.00,WeatherDisplay:10.37,2013-05-22 14:31:00,
2013-05-22 09:36:00,63.0,49.3,29.81,North,1,0.0,0.0,61,0.00,CLR,,0.00,WeatherDisplay:10.37,2013-05-22 14:36:00,
2013-05-22 09:41:00,64.0,50.8,29.81,North,1,0.0,0.0,62,0.00,CLR,,0.00,WeatherDisplay:10.37,2013-05-22 14:41:00,
2013-05-22 09:46:00,64.2,49.6,29.81,North,1,0.0,0.0,59,0.00,CLR,,0.00,WeatherDisplay:10.37,2013-05-22 14:46:00,
2013-05-22 09:51:00,64.6,49.9,29.81,North,1,0.0,0.0,59,0.00,CLR,,0.00,WeatherDisplay:10.37,2013-05-22 14:51:00,
2013-05-22 09:56:00,64.8,50.1,29.82,North,1,0.0,0.0,59,0.00,CLR,,0.00,WeatherDisplay:10.37,2013-05-22 14:56:00,
2013-05-22 10:01:00,65.3,50.1,29.82,North,1,0.0,0.0,58,0.00,CLR,,0.00,WeatherDisplay:10.37,2013-05-22 15:01:00,
2013-05-22 10:06:00,64.9,49.3,29.82,North,1,0.0,0.0,57,0.00,CLR,,0.00,WeatherDisplay:10.37,2013-05-22 15:06:00,
2013-05-22 10:11:00,64.6,49.0,29.82,North,1,0.0,0.0,57,0.00,CLR,,0.00,WeatherDisplay:10.37,2013-05-22 15:11:00,
2013-05-22 10:16:00,63.3,48.3,29.83,North,1,0.0,0.0,58,0.00,CLR,,0.00,WeatherDisplay:10.37,2013-05-22 15:16:00,
2013-05-22 10:21:00,63.0,47.9,29.83,North,1,0.0,0.0,58,0.00,CLR,,0.00,WeatherDisplay:10.37,2013-05-22 15:21:00,
2013-05-22 10:26:00,62.8,47.8,29.83,North,1,0.0,0.0,58,0.00,CLR,,0.00,WeatherDisplay:10.37,2013-05-22 15:26:00,
2013-05-22 10:31:00,62.8,48.2,29.83,North,1,0.0,0.0,59,0.00,CLR,,0.00,WeatherDisplay:10.37,2013-05-22 15:31:00,
2013-05-22 10:36:00,63.0,48.4,29.83,North,1,0.0,0.0,59,0.00,CLR,,0.00,WeatherDisplay:10.37,2013-05-22 15:36:00,
2013-05-22 10:41:00,63.3,48.3,29.83,North,1,0.0,0.0,58,0.00,CLR,,0.00,WeatherDisplay:10.37,2013-05-22 15:41:00,
2013-05-22 10:46:00,64.2,49.6,29.83,North,1,0.0,0.0,59,0.00,CLR,,0.00,WeatherDisplay:10.37,2013-05-22 15:46:00,
2013-05-22 10:51:00,64.0,49.0,29.83,North,1,0.0,0.0,58,0.00,CLR,,0.00,WeatherDisplay:10.37,2013-05-22 15:51:00,
2013-05-22 10:56:00,63.9,48.8,29.83,North,1,0.0,0.0,58,0.00,CLR,,0.00,WeatherDisplay:10.37,2013-05-22 15:56:00,
2013-05-22 11:01:00,63.7,48.6,29.84,North,1,0.0,0.0,58,0.00,CLR,,0.00,WeatherDisplay:10.37,2013-05-22 16:01:00,
2013-05-22 11:06:00,63.9,49.2,29.84,North,1,0.0,0.0,59,0.00,CLR,,0.00,WeatherDisplay:10.37,2013-05-22 16:06:00,
2013-05-22 11:11:00,64.2,49.1,29.83,North,1,0.0,0.0,58,0.00,CLR,,0.00,WeatherDisplay:10.37,2013-05-22 16:11:00,
2013-05-22 11:16:00,64.6,49.9,29.83,North,1,0.0,0.0,59,0.00,CLR,,0.00,WeatherDisplay:10.37,2013-05-22 16:16:00,
2013-05-22 11:21:00,64.8,49.6,29.84,North,1,0.0,0.0,58,0.00,CLR,,0.00,WeatherDisplay:10.37,2013-05-22 16:21:00,
2013-05-22 11:26:00,64.6,49.5,29.84,North,1,0.0,0.0,58,0.00,CLR,,0.00,WeatherDisplay:10.37,2013-05-22 16:26:00,
2013-05-22 11:31:00,64.0,49.0,29.84,North,1,0.0,0.0,58,0.00,CLR,,0.00,WeatherDisplay:10.37,2013-05-22 16:31:00,
2013-05-22 11:36:00,64.0,49.4,29.84,North,1,0.0,0.0,59,0.00,CLR,,0.00,WeatherDisplay:10.37,2013-05-22 16:36:00,
2013-05-22 11:41:00,63.7,49.1,29.84,North,1,0.0,0.0,59,0.00,CLR,,0.00,WeatherDisplay:10.37,2013-05-22 16:41:00,
2013-05-22 11:46:00,63.9,49.2,29.85,North,1,0.0,0.0,59,0.00,CLR,,0.00,WeatherDisplay:10.37,2013-05-22 16:46:00,
2013-05-22 11:51:00,64.4,49.8,29.84,North,1,0.0,0.0,59,0.00,CLR,,0.00,WeatherDisplay:10.37,2013-05-22 16:51:00,
2013-05-22 11:56:00,64.8,49.6,29.84,North,1,0.0,0.0,58,0.00,CLR,,0.00,WeatherDisplay:10.37,2013-05-22 16:56:00,
2013-05-22 12:01:00,64.6,49.9,29.84,North,1,0.0,0.0,59,0.00,CLR,,0.00,WeatherDisplay:10.37,2013-05-22 17:01:00,
2013-05-22 12:06:00,64.8,49.6,29.84,North,1,0.0,0.0,58,0.00,CLR,,0.00,WeatherDisplay:10.37,2013-05-22 17:06:00,
2013-05-22 12:11:00,65.7,50.5,29.84,North,1,0.0,0.0,58,0.00,CLR,,0.00,WeatherDisplay:10.37,2013-05-22 17:11:00,
2013-05-22 12:16:00,65.7,50.0,29.84,North,1,0.0,0.0,57,0.00,CLR,,0.00,WeatherDisplay:10.37,2013-05-22 17:16:00,
2013-05-22 12:21:00,65.5,49.4,29.84,North,1,0.0,0.0,56,0.00,CLR,,0.00,WeatherDisplay:10.37,2013-05-22 17:21:00,
2013-05-22 12:26:00,65.3,49.7,29.84,North,1,0.0,0.0,57,0.00,CLR,,0.00,WeatherDisplay:10.37,2013-05-22 17:26:00,
2013-05-22 12:31:00,65.1,49.5,29.84,North,1,0.0,0.0,57,0.00,CLR,,0.00,WeatherDisplay:10.37,2013-05-22 17:31:00,
2013-05-22 12:36:00,65.5,49.8,29.84,North,1,0.0,0.0,57,0.00,CLR,,0.00,WeatherDisplay:10.37,2013-05-22 17:36:00,
2013-05-22 12:41:00,65.8,50.2,29.85,North,1,0.0,0.0,57,0.00,CLR,,0.00,WeatherDisplay:10.37,2013-05-22 17:41:00,
2013-05-22 12:46:00,65.8,50.2,29.85,North,1,0.0,0.0,57,0.00,CLR,,0.00,WeatherDisplay:10.37,2013-05-22 17:46:00,
2013-05-22 12:51:00,65.8,50.2,29.85,North,1,0.0,0.0,57,0.00,CLR,,0.00,WeatherDisplay:10.37,2013-05-22 17:51:00,
2013-05-22 12:56:00,65.7,49.5,29.85,North,1,0.0,0.0,56,0.00,CLR,,0.00,WeatherDisplay:10.37,2013-05-22 17:56:00,
2013-05-22 13:01:00,65.7,49.5,29.85,North,1,0.0,0.0,56,0.00,CLR,,0.00,WeatherDisplay:10.37,2013-05-22 18:01:00,
2013-05-22 13:06:00,65.7,49.5,29.85,North,1,0.0,0.0,56,0.00,CLR,,0.00,WeatherDisplay:10.37,2013-05-22 18:06:00,
2013-05-22 13:11:00,65.7,49.5,29.85,North,1,0.0,0.0,56,0.00,CLR,,0.00,WeatherDisplay:10.37,2013-05-22 18:11:00,
2013-05-22 13:16:00,65.5,49.8,29.85,North,1,0.0,0.0,57,0.00,CLR,,0.00,WeatherDisplay:10.37,2013-05-22 18:16:00,
2013-05-22 13:21:00,65.5,49.8,29.85,North,1,0.0,0.0,57,0.00,CLR,,0.00,WeatherDisplay:10.37,2013-05-22 18:21:00,
2013-05-22 13:26:00,65.8,50.2,29.85,North,1,0.0,0.0,57,0.00,CLR,,0.00,WeatherDisplay:10.37,2013-05-22 18:26:00,
2013-05-22 13:31:00,65.8,49.7,29.85,North,1,0.0,0.0,56,0.00,CLR,,0.00,WeatherDisplay:10.37,2013-05-22 18:31:00,
2013-05-22 13:36:00,65.8,50.2,29.86,North,1,0.0,0.0,57,0.00,CLR,,0.00,WeatherDisplay:10.37,2013-05-22 18:36:00,
2013-05-22 13:41:00,66.0,50.3,29.85,North,1,0.0,0.0,57,0.00,CLR,,0.00,WeatherDisplay:10.37,2013-05-22 18:41:00,
2013-05-22 13:46:00,66.0,50.3,29.86,North,1,0.0,0.0,57,0.00,CLR,,0.00,WeatherDisplay:10.37,2013-05-22 18:46:00,
2013-05-22 13:51:00,66.0,50.3,29.86,North,1,0.0,0.0,57,0.00,CLR,,0.00,WeatherDisplay:10.37,2013-05-22 18:51:00,
2013-05-22 13:56:00,66.4,50.2,29.86,North,1,0.0,0.0,56,0.00,CLR,,0.00,WeatherDisplay:10.37,2013-05-22 18:56:00,
2013-05-22 14:01:00,66.4,50.2,29.86,North,1,0.0,0.0,56,0.00,CLR,,0.00,WeatherDisplay:10.37,2013-05-22 19:01:00,
2013-05-22 14:06:00,66.4,50.2,29.86,North,1,0.0,0.0,56,0.00,CLR,,0.00,WeatherDisplay:10.37,2013-05-22 19:06:00,
2013-05-22 14:11:00,66.4,50.2,29.86,North,1,0.0,0.0,56,0.00,CLR,,0.00,WeatherDisplay:10.37,2013-05-22 19:11:00,
2013-05-22 14:16:00,66.4,50.2,29.86,North,1,0.0,0.0,56,0.00,CLR,,0.00,WeatherDisplay:10.37,2013-05-22 19:16:00,
2013-05-22 14:21:00,66.6,50.4,29.86,North,1,0.0,0.0,56,0.00,CLR,,0.00,WeatherDisplay:10.37,2013-05-22 19:21:00,
2013-05-22 14:26:00,66.7,50.5,29.86,North,1,0.0,0.0,56,0.00,CLR,,0.00,WeatherDisplay:10.37,2013-05-22 19:26:00,
2013-05-22 14:31:00,66.9,51.2,29.86,North,1,0.0,0.0,57,0.00,CLR,,0.00,WeatherDisplay:10.37,2013-05-22 19:31:00,
2013-05-22 14:36:00,67.1,50.9,29.86,North,1,0.0,0.0,56,0.00,CLR,,0.00,WeatherDisplay:10.37,2013-05-22 19:36:00,
2013-05-22 14:41:00,67.5,51.2,29.86,North,1,0.0,0.0,56,0.00,CLR,,0.00,WeatherDisplay:10.37,2013-05-22 19:41:00,
2013-05-22 14:46:00,67.6,51.4,29.85,North,1,0.0,0.0,56,0.00,CLR,,0.00,WeatherDisplay:10.37,2013-05-22 19:46:00,
2013-05-22 14:51:00,67.8,51.1,29.85,North,1,0.0,0.0,55,0.00,CLR,,0.00,WeatherDisplay:10.37,2013-05-22 19:51:00,
2013-05-22 14:56:00,68.0,51.2,29.85,North,1,0.0,0.0,55,0.00,CLR,,0.00,WeatherDisplay:10.37,2013-05-22 19:56:00,
2013-05-22 15:01:00,68.2,51.4,29.85,North,1,0.0,0.0,55,0.00,CLR,,0.00,WeatherDisplay:10.37,2013-05-22 20:01:00,
2013-05-22 15:06:00,68.2,51.4,29.85,North,1,0.0,0.0,55,0.00,CLR,,0.00,WeatherDisplay:10.37,2013-05-22 20:06:00,
2013-05-22 15:11:00,68.0,50.7,29.85,North,1,0.0,0.0,54,0.00,CLR,,0.00,WeatherDisplay:10.37,2013-05-22 20:11:00,
2013-05-22 15:16:00,67.8,51.1,29.85,North,1,0.0,0.0,55,0.00,CLR,,0.00,WeatherDisplay:10.37,2013-05-22 20:16:00,
2013-05-22 15:21:00,68.4,51.6,29.85,North,1,0.0,0.0,55,0.00,CLR,,0.00,WeatherDisplay:10.37,2013-05-22 20:21:00,
2013-05-22 15:26:00,69.1,52.2,29.85,North,1,0.0,0.0,55,0.00,CLR,,0.00,WeatherDisplay:10.37,2013-05-22 20:26:00,
2013-05-22 15:31:00,69.3,51.9,29.84,North,1,0.0,0.0,54,0.00,CLR,,0.00,WeatherDisplay:10.37,2013-05-22 20:31:00,
2013-05-22 15:36:00,69.3,51.9,29.85,North,1,0.0,0.0,54,0.00,CLR,,0.00,WeatherDisplay:10.37,2013-05-22 20:36:00,
2013-05-22 15:41:00,68.9,51.6,29.85,North,1,0.0,0.0,54,0.00,CLR,,0.00,WeatherDisplay:10.37,2013-05-22 20:41:00,
2013-05-22 15:46:00,69.1,51.7,29.84,North,1,0.0,0.0,54,0.00,CLR,,0.00,WeatherDisplay:10.37,2013-05-22 20:46:00,
2013-05-22 15:51:00,69.1,51.2,29.84,North,1,0.0,0.0,53,0.00,CLR,,0.00,WeatherDisplay:10.37,2013-05-22 20:51:00,
2013-05-22 15:56:00,68.7,51.4,29.84,North,1,0.0,0.0,54,0.00,CLR,,0.00,WeatherDisplay:10.37,2013-05-22 20:56:00,
2013-05-22 16:01:00,68.7,51.4,29.84,North,1,0.0,0.0,54,0.00,CLR,,0.00,WeatherDisplay:10.37,2013-05-22 21:01:00,
2013-05-22 16:06:00,68.7,51.4,29.84,North,1,0.0,0.0,54,0.00,CLR,,0.00,WeatherDisplay:10.37,2013-05-22 21:06:00,
2013-05-22 16:11:00,69.3,51.9,29.84,North,1,0.0,0.0,54,0.00,CLR,,0.00,WeatherDisplay:10.37,2013-05-22 21:11:00,
2013-05-22 16:16:00,69.1,51.2,29.84,North,1,0.0,0.0,53,0.00,CLR,,0.00,WeatherDisplay:10.37,2013-05-22 21:16:00,
2013-05-22 16:21:00,68.5,51.2,29.84,North,1,0.0,0.0,54,0.00,CLR,,0.00,WeatherDisplay:10.37,2013-05-22 21:21:00,
2013-05-22 16:26:00,68.5,51.2,29.84,North,1,0.0,0.0,54,0.00,CLR,,0.00,WeatherDisplay:10.37,2013-05-22 21:26:00,
2013-05-22 16:31:00,68.5,51.2,29.84,North,1,0.0,0.0,54,0.00,CLR,,0.00,WeatherDisplay:10.37,2013-05-22 21:31:00,
2013-05-22 16:36:00,68.5,51.2,29.84,North,1,0.0,0.0,54,0.00,CLR,,0.00,WeatherDisplay:10.37,2013-05-22 21:36:00,
2013-05-22 16:41:00,68.5,51.2,29.84,North,1,0.0,0.0,54,0.00,CLR,,0.00,WeatherDisplay:10.37,2013-05-22 21:41:00,
2013-05-22 16:46:00,68.5,51.2,29.83,North,1,0.0,0.0,54,0.00,CLR,,0.00,WeatherDisplay:10.37,2013-05-22 21:46:00,
2013-05-22 16:51:00,68.7,51.4,29.84,North,1,0.0,0.0,54,0.00,CLR,,0.00,WeatherDisplay:10.37,2013-05-22 21:51:00,
2013-05-22 16:56:00,68.7,51.4,29.84,North,1,0.0,0.0,54,0.00,CLR,,0.00,WeatherDisplay:10.37,2013-05-22 21:56:00,
2013-05-22 17:01:00,68.4,51.1,29.84,North,1,0.0,0.0,54,0.00,CLR,,0.00,WeatherDisplay:10.37,2013-05-22 22:01:00,
2013-05-22 17:06:00,68.7,51.4,29.84,North,1,0.0,0.0,54,0.00,CLR,,0.00,WeatherDisplay:10.37,2013-05-22 22:06:00,
2013-05-22 17:11:00,68.7,50.9,29.84,North,1,0.0,0.0,53,0.00,CLR,,0.00,WeatherDisplay:10.37,2013-05-22 22:11:00,
2013-05-22 17:16:00,68.7,50.9,29.84,North,1,0.0,0.0,53,0.00,CLR,,0.00,WeatherDisplay:10.37,2013-05-22 22:16:00,
2013-05-22 17:21:00,68.4,50.6,29.84,North,1,0.0,0.0,53,0.00,CLR,,0.00,WeatherDisplay:10.37,2013-05-22 22:21:00,
2013-05-22 17:26:00,68.4,50.6,29.84,North,1,0.0,0.0,53,0.00,CLR,,0.00,WeatherDisplay:10.37,2013-05-22 22:26:00,
2013-05-22 17:31:00,68.4,50.6,29.84,North,1,0.0,0.0,53,0.00,CLR,,0.00,WeatherDisplay:10.37,2013-05-22 22:31:00,
2013-05-22 17:36:00,68.2,50.4,29.84,North,1,0.0,0.0,53,0.00,CLR,,0.00,WeatherDisplay:10.37,2013-05-22 22:36:00,
2013-05-22 17:41:00,68.2,50.9,29.84,North,1,0.0,0.0,54,0.00,CLR,,0.00,WeatherDisplay:10.37,2013-05-22 22:41:00,
2013-05-22 17:46:00,67.8,50.6,29.85,North,1,0.0,0.0,54,0.00,CLR,,0.00,WeatherDisplay:10.37,2013-05-22 22:46:00,
2013-05-22 17:51:00,67.8,50.6,29.84,North,1,0.0,0.0,54,0.00,CLR,,0.00,WeatherDisplay:10.37,2013-05-22 22:51:00,
2013-05-22 17:56:00,68.2,50.9,29.84,North,1,0.0,0.0,54,0.00,CLR,,0.00,WeatherDisplay:10.37,2013-05-22 22:56:00,
2013-05-22 18:01:00,68.4,51.1,29.85,North,1,0.0,0.0,54,0.00,CLR,,0.00,WeatherDisplay:10.37,2013-05-22 23:01:00,
2013-05-22 18:06:00,68.4,51.1,29.85,North,1,0.0,0.0,54,0.00,CLR,,0.00,WeatherDisplay:10.37,2013-05-22 23:06:00,
2013-05-22 18:11:00,68.0,50.7,29.84,North,1,0.0,0.0,54,0.00,CLR,,0.00,WeatherDisplay:10.37,2013-05-22 23:11:00,
2013-05-22 18:16:00,68.0,50.7,29.84,North,1,0.0,0.0,54,0.00,CLR,,0.00,WeatherDisplay:10.37,2013-05-22 23:16:00,
2013-05-22 18:21:00,68.2,50.9,29.85,North,1,0.0,0.0,54,0.00,CLR,,0.00,WeatherDisplay:10.37,2013-05-22 23:21:00,
2013-05-22 18:26:00,68.2,50.9,29.85,North,1,0.0,0.0,54,0.00,CLR,,0.00,WeatherDisplay:10.37,2013-05-22 23:26:00,
2013-05-22 18:31:00,68.2,50.9,29.84,North,1,0.0,0.0,54,0.00,CLR,,0.00,WeatherDisplay:10.37,2013-05-22 23:31:00,
2013-05-22 18:36:00,68.4,51.1,29.84,North,1,0.0,0.0,54,0.00,CLR,,0.00,WeatherDisplay:10.37,2013-05-22 23:36:00,
2013-05-22 18:41:00,68.4,51.1,29.84,North,1,0.0,0.0,54,0.00,CLR,,0.00,WeatherDisplay:10.37,2013-05-22 23:41:00,
2013-05-22 18:46:00,68.2,50.9,29.84,North,1,0.0,0.0,54,0.00,CLR,,0.00,WeatherDisplay:10.37,2013-05-22 23:46:00,
2013-05-22 18:51:00,68.0,50.7,29.84,North,1,0.0,0.0,54,0.00,CLR,,0.00,WeatherDisplay:10.37,2013-05-22 23:51:00,
2013-05-22 18:56:00,67.8,50.6,29.85,North,1,0.0,0.0,54,0.00,CLR,,0.00,WeatherDisplay:10.37,2013-05-22 23:56:00,
2013-05-22 19:01:00,67.5,50.2,29.84,North,1,0.0,0.0,54,0.00,CLR,,0.00,WeatherDisplay:10.37,2013-05-23 00:01:00,
2013-05-22 19:06:00,67.1,49.9,29.85,North,1,0.0,0.0,54,0.00,CLR,,0.00,WeatherDisplay:10.37,2013-05-23 00:06:00,
2013-05-22 19:11:00,66.6,49.4,29.85,North,1,0.0,0.0,54,0.00,CLR,,0.00,WeatherDisplay:10.37,2013-05-23 00:11:00,
2013-05-22 19:16:00,66.7,50.1,29.85,North,1,0.0,0.0,55,0.00,CLR,,0.00,WeatherDisplay:10.37,2013-05-23 00:16:00,
2013-05-22 19:21:00,66.7,50.1,29.85,North,1,0.0,0.0,55,0.00,CLR,,0.00,WeatherDisplay:10.37,2013-05-23 00:21:00,
2013-05-22 19:26:00,66.4,50.2,29.85,North,1,0.0,0.0,56,0.00,CLR,,0.00,WeatherDisplay:10.37,2013-05-23 00:26:00,
2013-05-22 19:31:00,66.4,50.2,29.85,North,1,0.0,0.0,56,0.00,CLR,,0.00,WeatherDisplay:10.37,2013-05-23 00:31:00,
2013-05-22 19:36:00,66.4,50.2,29.85,North,1,0.0,0.0,56,0.00,CLR,,0.00,WeatherDisplay:10.37,2013-05-23 00:36:00,
2013-05-22 19:41:00,66.4,50.2,29.86,North,1,0.0,0.0,56,0.00,CLR,,0.00,WeatherDisplay:10.37,2013-05-23 00:41:00,
2013-05-22 19:46:00,66.0,49.9,29.85,North,1,0.0,0.0,56,0.00,CLR,,0.00,WeatherDisplay:10.37,2013-05-23 00:46:00,
2013-05-22 19:51:00,65.8,49.7,29.86,North,1,0.0,0.0,56,0.00,CLR,,0.00,WeatherDisplay:10.37,2013-05-23 00:51:00,
2013-05-22 19:56:00,65.5,49.8,29.86,North,1,0.0,0.0,57,0.00,CLR,,0.00,WeatherDisplay:10.37,2013-05-23 00:56:00,
2013-05-22 20:01:00,65.5,49.8,29.86,North,1,0.0,0.0,57,0.00,CLR,,0.00,WeatherDisplay:10.37,2013-05-23 01:01:00,
2013-05-22 20:06:00,65.3,49.7,29.86,North,1,0.0,0.0,57,0.00,CLR,,0.00,WeatherDisplay:10.37,2013-05-23 01:06:00,
2013-05-22 20:11:00,65.1,49.5,29.86,North,1,0.0,0.0,57,0.00,CLR,,0.00,WeatherDisplay:10.37,2013-05-23 01:11:00,
2013-05-22 20:16:00,65.1,50.0,29.87,North,1,0.0,0.0,58,0.00,CLR,,0.00,WeatherDisplay:10.37,2013-05-23 01:16:00,
2013-05-22 20:21:00,64.9,49.8,29.87,North,1,0.0,0.0,58,0.00,CLR,,0.00,WeatherDisplay:10.37,2013-05-23 01:21:00,
2013-05-22 20:26:00,64.8,49.6,29.87,North,1,0.0,0.0,58,0.00,CLR,,0.00,WeatherDisplay:10.37,2013-05-23 01:26:00,
2013-05-22 20:31:00,64.8,49.6,29.87,North,1,0.0,0.0,58,0.00,CLR,,0.00,WeatherDisplay:10.37,2013-05-23 01:31:00,
2013-05-22 20:36:00,64.6,49.9,29.88,North,1,0.0,0.0,59,0.00,CLR,,0.00,WeatherDisplay:10.37,2013-05-23 01:36:00,
2013-05-22 20:41:00,64.6,49.9,29.88,North,1,0.0,0.0,59,0.00,CLR,,0.00,WeatherDisplay:10.37,2013-05-23 01:41:00,
2013-05-22 20:46:00,64.2,49.6,29.88,North,1,0.0,0.0,59,0.00,CLR,,0.00,WeatherDisplay:10.37,2013-05-23 01:46:00,
2013-05-22 20:51:00,64.0,49.4,29.88,North,1,0.0,0.0,59,0.00,CLR,,0.00,WeatherDisplay:10.37,2013-05-23 01:51:00,
2013-05-22 20:56:00,64.0,49.9,29.88,North,1,0.0,0.0,60,0.00,CLR,,0.00,WeatherDisplay:10.37,2013-05-23 01:56:00,
2013-05-22 21:01:00,63.9,49.7,29.89,North,1,0.0,0.0,60,0.00,CLR,,0.00,WeatherDisplay:10.37,2013-05-23 02:01:00,
2013-05-22 21:06:00,63.9,49.7,29.89,North,1,0.0,0.0,60,0.00,CLR,,0.00,WeatherDisplay:10.37,2013-05-23 02:06:00,
2013-05-22 21:11:00,64.0,49.9,29.89,North,1,0.0,0.0,60,0.00,CLR,,0.00,WeatherDisplay:10.37,2013-05-23 02:11:00,
2013-05-22 21:16:00,63.9,49.7,29.89,North,1,0.0,0.0,60,0.00,CLR,,0.00,WeatherDisplay:10.37,2013-05-23 02:16:00,
2013-05-22 21:21:00,63.9,49.7,29.89,North,1,0.0,0.0,60,0.00,CLR,,0.00,WeatherDisplay:10.37,2013-05-23 02:21:00,
2013-05-22 21:26:00,63.7,50.0,29.89,North,1,0.0,0.0,61,0.00,CLR,,0.00,WeatherDisplay:10.37,2013-05-23 02:26:00,
2013-05-22 21:31:00,63.7,50.0,29.90,North,1,0.0,0.0,61,0.00,CLR,,0.00,WeatherDisplay:10.37,2013-05-23 02:31:00,
2013-05-22 21:36:00,63.5,49.8,29.90,North,1,0.0,0.0,61,0.00,CLR,,0.00,WeatherDisplay:10.37,2013-05-23 02:36:00,
2013-05-22 21:41:00,63.3,49.6,29.90,North,1,0.0,0.0,61,0.00,CLR,,0.00,WeatherDisplay:10.37,2013-05-23 02:41:00,
2013-05-22 21:46:00,63.3,50.1,29.90,North,1,0.0,0.0,62,0.00,CLR,,0.00,WeatherDisplay:10.37,2013-05-23 02:46:00,
2013-05-22 21:51:00,63.0,49.7,29.91,North,1,0.0,0.0,62,0.00,CLR,,0.00,WeatherDisplay:10.37,2013-05-23 02:51:00,
2013-05-22 21:56:00,63.0,49.7,29.91,North,1,0.0,0.0,62,0.00,CLR,,0.00,WeatherDisplay:10.37,2013-05-23 02:56:00,
2013-05-22 22:01:00,63.0,50.2,29.91,North,1,0.0,0.0,63,0.00,CLR,,0.00,WeatherDisplay:10.37,2013-05-23 03:01:00,
2013-05-22 22:06:00,63.0,50.2,29.91,North,1,0.0,0.0,63,0.00,CLR,,0.00,WeatherDisplay:10.37,2013-05-23 03:06:00,
2013-05-22 22:11:00,63.0,50.2,29.92,North,1,0.0,0.0,63,0.00,CLR,,0.00,WeatherDisplay:10.37,2013-05-23 03:11:00,
2013-05-22 22:16:00,62.8,50.0,29.92,North,1,0.0,0.0,63,0.00,CLR,,0.00,WeatherDisplay:10.37,2013-05-23 03:16:00,
2013-05-22 22:21:00,62.8,50.0,29.92,North,1,0.0,0.0,63,0.00,CLR,,0.00,WeatherDisplay:10.37,2013-05-23 03:21:00,
2013-05-22 22:26:00,62.4,49.7,29.92,North,1,0.0,0.0,63,0.00,CLR,,0.00,WeatherDisplay:10.37,2013-05-23 03:26:00,
2013-05-22 22:31:00,62.4,49.7,29.92,North,1,0.0,0.0,63,0.00,CLR,,0.00,WeatherDisplay:10.37,2013-05-23 03:31:00,
2013-05-22 22:36:00,62.2,49.5,29.93,North,1,0.0,0.0,63,0.00,CLR,,0.00,WeatherDisplay:10.37,2013-05-23 03:36:00,
2013-05-22 22:41:00,62.2,49.9,29.93,North,1,0.0,0.0,64,0.00,CLR,,0.00,WeatherDisplay:10.37,2013-05-23 03:41:00,
2013-05-22 22:46:00,62.1,49.7,29.93,North,1,0.0,0.0,64,0.00,CLR,,0.00,WeatherDisplay:10.37,2013-05-23 03:46:00,
2013-05-22 22:51:00,62.1,49.7,29.93,North,1,0.0,0.0,64,0.00,CLR,,0.00,WeatherDisplay:10.37,2013-05-23 03:51:00,
2013-05-22 22:56:00,61.9,49.6,29.93,North,1,0.0,0.0,64,0.00,CLR,,0.00,WeatherDisplay:10.37,2013-05-23 03:56:00,
2013-05-22 23:01:00,61.7,49.4,29.93,North,1,0.0,0.0,64,0.00,CLR,,0.00,WeatherDisplay:10.37,2013-05-23 04:01:00,
2013-05-22 23:02:00,61.7,49.4,29.93,North,1,0.0,0.0,64,0.00,CLR,,0.00,WeatherDisplay:10.37,2013-05-23 04:02:00,
2013-05-22 23:07:00,61.7,49.4,29.93,North,1,0.0,0.0,64,0.00,CLR,,0.00,WeatherDisplay:10.37,2013-05-23 04:07:00,
2013-05-22 23:12:00,61.7,49.4,29.93,North,1,0.0,0.0,64,0.00,CLR,,0.00,WeatherDisplay:10.37,2013-05-23 04:12:00,
2013-05-22 23:17:00,61.7,49.4,29.93,North,1,0.0,0.0,64,0.00,CLR,,0.00,WeatherDisplay:10.37,2013-05-23 04:17:00,
2013-05-22 23:22:00,61.7,49.4,29.93,North,1,0.0,0.0,64,0.00,CLR,,0.00,WeatherDisplay:10.37,2013-05-23 04:22:00,
2013-05-22 23:27:00,61.5,49.2,29.93,North,1,0.0,0.0,64,0.00,CLR,,0.00,WeatherDisplay:10.37,2013-05-23 04:27:00,
2013-05-22 23:32:00,61.5,49.2,29.93,North,1,0.0,0.0,64,0.00,CLR,,0.00,WeatherDisplay:10.37,2013-05-23 04:32:00,
2013-05-22 23:37:00,61.2,48.9,29.93,North,1,0.0,0.0,64,0.00,CLR,,0.00,WeatherDisplay:10.37,2013-05-23 04:37:00,
2013-05-22 23:42:00,61.2,48.9,29.93,North,1,0.0,0.0,64,0.00,CLR,,0.00,WeatherDisplay:10.37,2013-05-23 04:42:00,
2013-05-22 23:47:00,61.2,48.9,29.93,North,1,0.0,0.0,64,0.00,CLR,,0.00,WeatherDisplay:10.37,2013-05-23 04:47:00,
2013-05-22 23:52:00,61.0,48.7,29.94,North,1,0.0,0.0,64,0.00,CLR,,0.00,WeatherDisplay:10.37,2013-05-23 04:52:00,
2013-05-22 23:57:00,61.0,49.1,29.94,North,1,0.0,0.0,65,0.00,CLR,,0.00,WeatherDisplay:10.37,2013-05-23 04:57:00,